Weather History for Keokuk, IA

Change the Weather History Date:

Sunday, December 9, 2012

  Actual Average Record
Temperature  
Mean Temperature 34 °F -  
Max Temperature 42 °F 39 °F 69 °F (1991)
Min Temperature 26 °F 23 °F -5 °F (1958)
Degree Days  
Heating Degree Days 31    
Moisture  
Dew Point 32 °F    
Average Humidity 80    
Maximum Humidity 87    
Minimum Humidity 69    
Precipitation  
Precipitation 0.05 in - - ()
Sea Level Pressure  
Sea Level Pressure 29.86 in    
Wind  
Wind Speed 10 mph (NW)    
Max Wind Speed 25 mph    
Max Gust Speed 32 mph    
Visibility 7 miles    
Events Rain    
Averages and records for this station are not official NWS values.
T = Trace of Precipitation, MM = Missing Value Source: NWS Daily Summary

Daily Weather History Graph

Daily Weather History Graph

Search for Another Location

Airport:

Trip Planner

Search our weather history database for the weather conditions in past years. The results will help you decide how hot, cold, wet, or windy it might be!

Date:

Astronomy

Dec. 09, 2012 Rise Set
Actual Time 7:17 AM CST 4:38 PM CST
Civil Twilight 6:46 AM CST 5:09 PM CST
Nautical Twilight 6:12 AM CST 5:43 PM CST
Astronomical Twilight 5:39 AM CST 6:16 PM CST
Moon 2:50 AM CST (12/9) 1:46 PM CST (12/9)
Length of Visible Light 10h 22m
Length of Day
9h 21m
Waning Crescent, 18% of the Moon is Illuminated
Dec 9
Waning Crescent
Dec 13
New
Dec 19
First Quarter
Dec 28
Full
Jan 4
Last Quarter

Hourly Weather History & Observations

Time (CST) Temp. Windchill Dew Point Humidity Pressure Visibility Wind Dir Wind Speed Gust Speed Precip Events Conditions
12:15 AM 39.2 °F 33.6 °F 33.8 °F 81% 29.96 in 10.0 mi East 8.1 mph - N/A   Overcast
12:35 AM 39.2 °F 32.5 °F 33.8 °F 81% 29.96 in 7.0 mi East 10.4 mph - N/A Rain Light Rain
12:55 AM 39.2 °F 33.6 °F 33.8 °F 81% 29.95 in 7.0 mi East 8.1 mph - N/A   Overcast
1:15 AM 39.2 °F 34.2 °F 33.8 °F 81% 29.94 in 7.0 mi East 6.9 mph - N/A   Overcast
1:35 AM 39.2 °F 34.2 °F 33.8 °F 81% 29.94 in 7.0 mi East 6.9 mph - N/A   Overcast
1:55 AM 39.2 °F 32.5 °F 33.8 °F 81% 29.93 in 7.0 mi East 10.4 mph - N/A   Overcast
2:15 AM 39.2 °F 31.6 °F 33.8 °F 81% 29.92 in 5.0 mi East 12.7 mph - N/A   Haze
2:35 AM 39.2 °F 31.6 °F 33.8 °F 81% 29.91 in 5.0 mi East 12.7 mph 17.3 mph N/A   Haze
2:55 AM 39.2 °F 32.5 °F 33.8 °F 81% 29.90 in 7.0 mi East 10.4 mph - N/A   Overcast
3:15 AM 39.2 °F 30.2 °F 33.8 °F 81% 29.89 in 5.0 mi East 17.3 mph 20.7 mph N/A   Haze
3:35 AM 39.2 °F 31.2 °F 33.8 °F 81% 29.89 in 4.0 mi East 13.8 mph - N/A Rain Light Rain
3:55 AM 39.2 °F 32.0 °F 33.8 °F 81% 29.88 in 3.0 mi East 11.5 mph - 0.01 in Rain Light Rain
4:15 AM 39.2 °F 33.0 °F 33.8 °F 81% 29.88 in 4.0 mi East 9.2 mph - 0.01 in Rain Light Rain
4:35 AM 37.4 °F 30.3 °F 33.8 °F 87% 29.86 in 2.5 mi East 10.4 mph - 0.01 in   Light Drizzle
4:55 AM 37.4 °F 29.8 °F 33.8 °F 87% 29.85 in 2.0 mi East 11.5 mph 16.1 mph 0.02 in Rain Light Rain
5:15 AM 37.4 °F 32.1 °F 33.8 °F 87% 29.85 in 3.0 mi East 6.9 mph - 0.01 in Rain Light Rain
5:35 AM 37.4 °F 31.4 °F 33.8 °F 87% 29.85 in 2.5 mi East 8.1 mph - 0.01 in   Haze
5:55 AM 37.4 °F 31.4 °F 33.8 °F 87% 29.86 in 2.0 mi East 8.1 mph - 0.01 in   Haze
6:15 AM 37.4 °F 31.4 °F 33.8 °F 87% 29.86 in 1.8 mi East 8.1 mph - N/A   Haze
6:35 AM 37.4 °F 32.1 °F 33.8 °F 87% 29.86 in 1.8 mi East 6.9 mph - N/A   Haze
6:55 AM 37.4 °F 32.1 °F 33.8 °F 87% 29.86 in 1.8 mi East 6.9 mph - 0.01 in   Haze
7:15 AM 37.4 °F 34.9 °F 33.8 °F 87% 29.85 in 1.8 mi East 3.5 mph - N/A   Haze
7:35 AM 37.4 °F 31.4 °F 33.8 °F 87% 29.85 in 1.8 mi East 8.1 mph - N/A   Haze
7:55 AM 39.2 °F 37.0 °F 33.8 °F 81% 29.85 in 1.2 mi ESE 3.5 mph - N/A   Haze
8:15 AM 39.2 °F 35.9 °F 33.8 °F 81% 29.85 in 1.5 mi East 4.6 mph - N/A   Haze
8:35 AM 39.2 °F 37.0 °F 33.8 °F 81% 29.85 in 1.2 mi East 3.5 mph - N/A   Haze
8:55 AM 39.2 °F - 33.8 °F 81% 29.86 in 1.2 mi Calm Calm - N/A   Haze
9:35 AM 39.2 °F - 35.6 °F 87% 29.85 in 1.0 mi Calm Calm - N/A   Haze
9:55 AM 39.2 °F - 35.6 °F 87% 29.85 in 1.2 mi Calm Calm - N/A   Haze
10:35 AM 39.2 °F - 35.6 °F 87% 29.83 in 1.5 mi Calm Calm - N/A   Haze
10:55 AM 41.0 °F - 35.6 °F 81% 29.83 in 1.2 mi Calm Calm - N/A   Haze
11:15 AM 41.0 °F - 35.6 °F 81% 29.82 in 1.5 mi Calm Calm - N/A   Haze
11:35 AM 41.0 °F 39.0 °F 35.6 °F 81% 29.82 in 2.0 mi WSW 3.5 mph - N/A   Haze
11:55 AM 42.8 °F 41.1 °F 35.6 °F 76% 29.81 in 2.0 mi SW 3.5 mph - N/A   Haze
12:15 PM 42.8 °F 38.6 °F 37.4 °F 81% 29.80 in 5.0 mi West 6.9 mph - N/A   Haze
12:35 PM 42.8 °F 37.5 °F 37.4 °F 81% 29.81 in 5.0 mi West 9.2 mph - N/A   Haze
12:55 PM 42.8 °F 37.0 °F 37.4 °F 81% 29.80 in 7.0 mi West 10.4 mph - N/A   Overcast
1:15 PM 42.8 °F 36.6 °F 37.4 °F 81% 29.80 in 10.0 mi West 11.5 mph - N/A   Overcast
1:35 PM 42.8 °F 38.6 °F 37.4 °F 81% 29.80 in 10.0 mi West 6.9 mph - N/A   Overcast
1:55 PM 42.8 °F 38.0 °F 37.4 °F 81% 29.79 in 10.0 mi West 8.1 mph - N/A   Overcast
2:15 PM 42.8 °F 36.2 °F 37.4 °F 81% 29.79 in 10.0 mi WNW 12.7 mph - N/A   Overcast
2:35 PM 42.8 °F 36.6 °F 37.4 °F 81% 29.80 in 10.0 mi WNW 11.5 mph 16.1 mph N/A   Overcast
2:55 PM 42.8 °F 35.4 °F 37.4 °F 81% 29.81 in 10.0 mi WNW 15.0 mph 19.6 mph N/A   Overcast
3:15 PM 42.8 °F 37.5 °F 35.6 °F 76% 29.82 in 10.0 mi WNW 9.2 mph - N/A   Overcast
3:35 PM 42.8 °F 36.6 °F 35.6 °F 76% 29.82 in 10.0 mi WNW 11.5 mph 17.3 mph N/A   Overcast
3:55 PM 42.8 °F 36.6 °F 35.6 °F 76% 29.83 in 10.0 mi West 11.5 mph - N/A   Overcast
4:15 PM 42.8 °F 36.2 °F 35.6 °F 76% 29.83 in 10.0 mi NW 12.7 mph - N/A   Overcast
4:35 PM 42.8 °F 37.5 °F 35.6 °F 76% 29.82 in 10.0 mi WNW 9.2 mph - N/A   Overcast
4:55 PM 41.0 °F 35.8 °F 35.6 °F 81% 29.82 in 10.0 mi West 8.1 mph - N/A   Overcast
5:15 PM 41.0 °F 35.2 °F 35.6 °F 81% 29.81 in 10.0 mi WNW 9.2 mph - N/A   Overcast
5:35 PM 41.0 °F 35.2 °F 35.6 °F 81% 29.82 in 10.0 mi WNW 9.2 mph - N/A   Overcast
5:55 PM 41.0 °F 35.8 °F 35.6 °F 81% 29.82 in 10.0 mi WNW 8.1 mph - N/A   Overcast
6:15 PM 41.0 °F 32.8 °F 35.6 °F 81% 29.83 in 10.0 mi West 16.1 mph - N/A   Overcast
6:35 PM 39.2 °F 30.8 °F 33.8 °F 81% 29.84 in 7.0 mi West 15.0 mph 21.9 mph N/A   Overcast
6:55 PM 39.2 °F 30.8 °F 32.0 °F 75% 29.84 in 10.0 mi WNW 15.0 mph 20.7 mph N/A   Overcast
7:15 PM 39.2 °F 30.8 °F 30.2 °F 70% 29.85 in 10.0 mi West 15.0 mph 24.2 mph N/A   Overcast
7:35 PM 35.6 °F 25.2 °F 28.4 °F 75% 29.86 in 10.0 mi West 18.4 mph 21.9 mph N/A   Overcast
7:55 PM 35.6 °F 24.8 °F 26.6 °F 70% 29.87 in 10.0 mi West 19.6 mph 24.2 mph N/A   Overcast
8:15 PM 33.8 °F 21.0 °F 24.8 °F 70% 29.88 in 10.0 mi West 25.3 mph 32.2 mph N/A   Overcast
8:35 PM 32.0 °F 21.6 °F 24.8 °F 75% 29.88 in 10.0 mi WNW 15.0 mph 25.3 mph N/A   Overcast
8:55 PM 30.2 °F 17.4 °F 23.0 °F 75% 29.88 in 10.0 mi West 20.7 mph 26.5 mph N/A   Overcast
9:15 PM 30.2 °F 17.8 °F 21.2 °F 69% 29.89 in 10.0 mi West 19.6 mph 25.3 mph N/A   Overcast
9:35 PM 28.4 °F 15.4 °F 21.2 °F 74% 29.89 in 10.0 mi West 19.6 mph 24.2 mph N/A   Overcast
9:55 PM 28.4 °F 17.5 °F 21.2 °F 74% 29.89 in 10.0 mi WNW 13.8 mph 21.9 mph N/A   Overcast
10:15 PM 28.4 °F 15.1 °F 19.4 °F 69% 29.89 in 10.0 mi WNW 20.7 mph 28.8 mph N/A   Overcast
10:35 PM 28.4 °F 16.6 °F 19.4 °F 69% 29.90 in 10.0 mi WNW 16.1 mph 21.9 mph N/A   Overcast
10:55 PM 28.4 °F 17.0 °F 19.4 °F 69% 29.90 in 10.0 mi WNW 15.0 mph 23.0 mph N/A   Overcast
11:15 PM 26.6 °F 14.7 °F 19.4 °F 74% 29.91 in 10.0 mi West 15.0 mph 24.2 mph N/A   Overcast
11:35 PM 26.6 °F 13.8 °F 19.4 °F 74% 29.91 in 10.0 mi West 17.3 mph 21.9 mph N/A   Overcast
11:55 PM 26.6 °F 14.3 °F 17.6 °F 69% 29.91 in 10.0 mi West 16.1 mph 24.2 mph N/A   Overcast